Louisville Bowman, KY

7:03 AM EDT on June 23, 2017 (GMT -0400)
Bowman

Weather History for KLOU - March, 2013

Change the Weather History Date:

Tuesday, March 12, 2013

  Actual Average Record
Temperature  
Mean Temperature 43 °F 46 °F  
Max Temperature 50 °F 55 °F 78 °F (1972)
Min Temperature 36 °F 36 °F 14 °F (1998)
Degree Days  
Heating Degree Days 22 19  
Month to date heating degree days 303 254  
Since 1 July heating degree days 3533 3615  
Cooling Degree Days 0 0  
Month to date cooling degree days 0 0  
Year to date cooling degree days 0 0  
Moisture  
Dew Point 26 °F    
Average Humidity 55    
Maximum Humidity 70    
Minimum Humidity 39    
Precipitation  
Precipitation T in 0.13 in 1.73 in (2006)
Month to date precipitation 1.55 1.38  
Year to date precipitation 8.26 7.94  
Sea Level Pressure  
Sea Level Pressure 30.04 in    
Wind  
Wind Speed 11 mph (West)    
Max Wind Speed 23 mph    
Max Gust Speed 31 mph    
Visibility 10 miles    
Events Rain    
T = Trace of Precipitation, MM = Missing Value Source: NWS Daily Summary

Daily Weather History Graph

Daily Weather History Graph

Search for Another Location

Airport or City:

Trip Planner

Search our weather history database for the weather conditions in past years. The results will help you decide how hot, cold, wet, or windy it might be!

Date:

Astronomy

Mar. 12, 2013 Rise Set
Actual Time 7:57 AM EDT 7:47 PM EDT
Civil Twilight 7:31 AM EDT 8:13 PM EDT
Nautical Twilight 7:01 AM EDT 8:44 PM EDT
Astronomical Twilight 6:30 AM EDT 9:15 PM EDT
Moon 8:05 AM EDT (3/12) 8:59 PM EDT (3/12)
Length of Visible Light 12h 41m
Length of Day
11h 49m
New Moon, 1% of the Moon is Illuminated
Mar 12
New Moon
Mar 19
First Quarter
Mar 27
Full
Apr 3
Last Quarter
Apr 10
New

Hourly Weather History & Observations

Time (EDT) Temp. Windchill Dew Point Humidity Pressure Visibility Wind Dir Wind Speed Gust Speed Precip Events Conditions
12:53 AM 37.9 °F 30.9 °F 28.9 °F 70% 29.96 in 10.0 mi West 10.4 mph 19.6 mph N/A   Overcast
1:53 AM 37.0 °F 30.4 °F 28.9 °F 73% 29.97 in 10.0 mi West 9.2 mph - N/A   Overcast
2:53 AM 37.0 °F 30.4 °F 28.9 °F 73% 29.98 in 10.0 mi West 9.2 mph - N/A   Overcast
3:53 AM 37.0 °F 31.0 °F 28.0 °F 70% 29.97 in 10.0 mi West 8.1 mph - N/A   Overcast
4:53 AM 37.0 °F 30.4 °F 28.9 °F 73% 29.97 in 10.0 mi West 9.2 mph - N/A   Overcast
5:53 AM 36.0 °F 27.5 °F 27.0 °F 70% 29.99 in 10.0 mi West 12.7 mph - N/A   Overcast
6:53 AM 36.0 °F 28.5 °F 26.1 °F 67% 30.01 in 10.0 mi West 10.4 mph - N/A   Overcast
7:53 AM 36.0 °F 28.0 °F 25.0 °F 64% 30.03 in 10.0 mi West 11.5 mph - N/A   Overcast
8:53 AM 36.0 °F 30.3 °F 25.0 °F 64% 30.05 in 10.0 mi West 6.9 mph - N/A   Overcast
9:53 AM 37.0 °F 31.0 °F 24.1 °F 59% 30.05 in 10.0 mi West 8.1 mph - N/A   Overcast
10:53 AM 39.0 °F 32.3 °F 24.1 °F 55% 30.07 in 10.0 mi West 10.4 mph - N/A   Partly Cloudy
11:53 AM 41.0 °F 34.3 °F 25.0 °F 53% 30.07 in 10.0 mi WSW 11.5 mph 18.4 mph N/A   Partly Cloudy
12:53 PM 43.0 °F 36.0 °F 26.1 °F 51% 30.07 in 10.0 mi West 13.8 mph 20.7 mph N/A   Scattered Clouds
1:53 PM 45.0 °F 38.9 °F 26.1 °F 48% 30.07 in 10.0 mi West 12.7 mph 17.3 mph N/A   Clear
2:53 PM 46.9 °F - 26.1 °F 44% 30.05 in 10.0 mi WSW 17.3 mph 24.2 mph N/A   Partly Cloudy
3:53 PM 48.9 °F - 27.0 °F 43% 30.04 in 10.0 mi SW 13.8 mph 20.7 mph N/A   Mostly Cloudy
4:53 PM 50.0 °F - 27.0 °F 41% 30.03 in 10.0 mi West 15.0 mph 19.6 mph N/A   Partly Cloudy
5:53 PM 48.9 °F - 26.1 °F 41% 30.02 in 10.0 mi WSW 11.5 mph - N/A   Partly Cloudy
6:53 PM 48.0 °F - 24.1 °F 39% 30.03 in 10.0 mi West 12.7 mph 19.6 mph N/A   Clear
7:53 PM 46.0 °F 40.2 °F 25.0 °F 44% 30.05 in 10.0 mi WSW 12.7 mph 17.3 mph N/A   Scattered Clouds
8:53 PM 44.1 °F 37.4 °F 21.0 °F 40% 30.08 in 10.0 mi West 13.8 mph - N/A   Scattered Clouds
9:53 PM 41.0 °F 37.1 °F 21.9 °F 47% 30.09 in 10.0 mi West 5.8 mph - N/A   Clear
10:53 PM 42.1 °F 37.7 °F 21.9 °F 45% 30.10 in 10.0 mi West 6.9 mph - N/A   Overcast
11:45 PM 37.4 °F 28.5 °F 33.8 °F 87% 30.12 in 8.0 mi NW 15.0 mph 25.3 mph 0.00 in Rain Light Rain
11:53 PM 37.0 °F 29.3 °F 33.1 °F 86% 30.13 in 9.0 mi NW 11.5 mph 21.9 mph 0.00 in Rain Light Rain